Temp
-5 -5 -5 -5 -5 -5 -5 -5 -5 -5 -5 -5 -5 -5 -6 -6 -7 -7 -8 -8 -8 -9 -8 -8 -8 -8 -8 -8 -8 -8 -8 -8 -8 -9 -9 -9 -9 -9 -9 -10 -10 -10 -10 -10 -10 -10 -11 -11 -11
-6 -6 -5 -6 -7 -6 -5 -5 -5 -5 -5 -5 -6 -6 -8 -7 -7 -8 -8 -8 -8 -8 -8 -9 -9 -9 -8 -8 -8 -8 -8 -9 -9 -9 -9 -9 -10 -10 -10 -10 -10 -10 -10 -10 -10 -11 -11 -11 -11
-5 -5 -5 -5 -6 -6 -5 -5 -5 -6 -6 -6 -7 -7 -8 -8 -8 -8 -9 -9 -9 -9 -9 -9 -9 -9 -9 -9 -9 -9 -9 -9 -10 -10 -10 -10 -10 -10 -11 -11 -11 -10 -10 -10 -10 -11 -11 -11 -11
-5 -5 -5 -6 -5 -5 -5 -5 -6 -6 -7 -7 -8 -8 -8 -8 -8 -9 -9 -9 -10 -10 -10 -10 -10 -10 -10 -10 -10 -11 -10 -10 -10 -10 -10 -10 -10 -10 -10 -11 -11 -11 -11 -11 -11 -11 -11 -11 -11
-5 -5 -5 -5 -5 -5 -5 -5 -6 -7 -7 -8 -8 -8 -9 -9 -9 -9 -10 -10 -11 -11 -11 -10 -10 -10 -10 -10 -10 -10 -11 -11 -11 -10 -11 -11 -11 -11 -11 -10 -10 -11 -11 -11 -11 -11 -11 -11 -11
-5 -5 -5 -5 -5 -5 -5 -5 -6 -6 -7 -8 -8 -8 -9 -9 -9 -9 -10 -10 -11 -11 -11 -11 -10 -10 -10 -10 -10 -10 -10 -10 -11 -11 -11 -11 -12 -12 -12 -12 -11 -11 -11 -11 -11 -12 -11 -11 -11
-5 -5 -5 -5 -5 -5 -5 -5 -6 -6 -7 -8 -8 -8 -9 -9 -9 -10 -10 -11 -11 -11 -11 -11 -10 -10 -10 -10 -10 -10 -10 -10 -10 -10 -11 -11 -11 -11 -12 -13 -12 -12 -12 -12 -11 -11 -11 -12 -12
-4 -5 -5 -5 -5 -4 -5 -5 -6 -7 -7 -8 -8 -8 -8 -9 -10 -10 -11 -11 -11 -10 -10 -10 -10 -10 -10 -10 -10 -10 -11 -11 -11 -11 -11 -11 -10 -11 -12 -12 -12 -12 -13 -13 -12 -12 -12 -12 -12
-4 -5 -5 -4 -5 -5 -5 -5 -6 -7 -7 -8 -8 -9 -9 -10 -10 -10 -11 -10 -10 -10 -10 -10 -10 -10 -10 -10 -10 -11 -11 -11 -11 -12 -11 -11 -11 -11 -11 -11 -12 -12 -12 -13 -13 -13 -12 -12 -12
-5 -5 -4 -4 -5 -5 -6 -6 -6 -7 -7 -8 -8 -9 -9 -10 -10 -10 -10 -10 -10 -10 -10 -10 -10 -10 -10 -10 -10 -10 -10 -10 -11 -11 -11 -11 -11 -11 -11 -11 -11 -11 -12 -13 -13 -13 -14 -13 -13
-4 -4 -4 -5 -5 -5 -5 -6 -7 -7 -8 -8 -9 -9 -10 -10 -10 -10 -10 -10 -10 -10 -10 -10 -10 -10 -10 -11 -11 -11 -11 -11 -11 -11 -11 -12 -12 -12 -11 -12 -12 -12 -12 -12 -14 -14 -14 -14 -14
-4 -4 -4 -4 -5 -5 -5 -6 -6 -7 -8 -8 -9 -9 -10 -10 -10 -10 -10 -10 -10 -10 -10 -10 -10 -11 -11 -11 -11 -11 -11 -12 -12 -12 -12 -12 -12 -12 -12 -12 -12 -12 -13 -13 -13 -15 -15 -16 -14
-4 -4 -4 -5 -5 -5 -6 -6 -7 -8 -8 -9 -9 -9 -9 -9 -10 -10 -10 -10 -10 -10 -10 -11 -11 -11 -11 -11 -11 -12 -12 -12 -12 -12 -12 -13 -13 -14 -14 -14 -14 -13 -13 -13 -15 -14 -16 -15 -16
-5 -5 -5 -5 -5 -5 -6 -6 -7 -8 -9 -9 -10 -9 -9 -10 -10 -10 -10 -10 -11 -11 -11 -11 -11 -11 -11 -12 -12 -12 -12 -13 -13 -13 -13 -14 -13 -13 -13 -14 -14 -14 -14 -14 -14 -15 -15 -16 -15
-5 -5 -5 -5 -5 -6 -7 -7 -8 -9 -9 -9 -10 -9 -10 -10 -10 -10 -11 -11 -11 -11 -11 -11 -12 -12 -12 -12 -13 -13 -13 -13 -14 -14 -14 -14 -14 -15 -15 -15 -15 -15 -16 -16 -15 -15 -15 -16 -16
-5 -6 -6 -6 -6 -7 -7 -8 -8 -9 -9 -9 -9 -10 -10 -10 -10 -11 -11 -11 -11 -11 -11 -11 -12 -12 -13 -13 -14 -14 -14 -15 -15 -15 -15 -15 -15 -15 -16 -16 -16 -16 -16 -16 -16 -16 -16 -16 -17
-6 -6 -6 -7 -7 -7 -8 -8 -9 -9 -9 -9 -9 -10 -10 -10 -11 -11 -11 -11 -11 -11 -12 -12 -13 -13 -13 -13 -14 -14 -15 -15 -15 -15 -16 -16 -16 -17 -17 -17 -17 -17 -17 -17 -17 -17 -17 -17 -17
-6 -7 -7 -7 -8 -8 -8 -9 -10 -10 -10 -10 -10 -10 -11 -11 -11 -11 -11 -11 -11 -12 -12 -13 -13 -13 -14 -14 -14 -15 -14 -14 -15 -15 -16 -17 -17 -17 -18 -17 -17 -18 -18 -18 -18 -18 -17 -17 -17
-7 -7 -8 -8 -8 -9 -9 -10 -10 -10 -10 -10 -11 -11 -11 -11 -11 -11 -11 -11 -12 -12 -13 -13 -14 -14 -14 -15 -14 -14 -15 -15 -16 -16 -17 -18 -18 -18 -18 -18 -18 -18 -18 -18 -18 -18 -18 -18 -18
-8 -8 -8 -9 -9 -9 -9 -10 -11 -10 -10 -11 -11 -11 -11 -11 -11 -11 -12 -12 -12 -13 -13 -14 -14 -14 -14 -14 -15 -15 -16 -16 -17 -18 -18 -19 -19 -21 -22 -21 -21 -21 -21 -20 -18 -18 -18 -18 -18
-8 -8 -9 -9 -9 -9 -10 -10 -11 -11 -11 -11 -11 -11 -11 -11 -11 -12 -12 -13 -13 -14 -14 -14 -14 -15 -15 -15 -16 -16 -17 -18 -19 -20 -21 -23 -24 -25 -25 -25 -24 -24 -24 -24 -21 -20 -19 -18 -18
-9 -9 -9 -9 -9 -9 -10 -10 -10 -10 -11 -11 -11 -11 -11 -11 -12 -12 -12 -13 -14 -14 -14 -15 -15 -15 -16 -16 -16 -17 -18 -20 -21 -23 -25 -26 -26 -26 -26 -25 -25 -25 -24 -24 -23 -23 -22 -20 -19
-9 -9 -9 -10 -10 -10 -10 -11 -10 -11 -11 -11 -11 -11 -12 -12 -12 -13 -13 -14 -14 -14 -15 -16 -16 -16 -16 -16 -17 -18 -20 -23 -24 -26 -26 -26 -26 -25 -25 -25 -25 -25 -25 -25 -24 -23 -23 -23 -21
-10 -10 -10 -10 -10 -10 -11 -11 -11 -11 -12 -12 -12 -12 -12 -12 -13 -13 -14 -14 -15 -16 -16 -16 -16 -16 -17 -17 -18 -20 -23 -24 -25 -25 -25 -25 -25 -25 -25 -25 -25 -25 -25 -25 -24 -24 -24 -24 -23
-10 -10 -10 -10 -10 -11 -11 -12 -12 -12 -12 -12 -12 -12 -12 -13 -13 -14 -14 -15 -16 -16 -16 -17 -17 -17 -17 -18 -19 -23 -24 -25 -25 -25 -25 -25 -25 -24 -25 -25 -25 -25 -25 -25 -25 -24 -24 -24 -24
-10 -11 -11 -11 -11 -12 -12 -12 -12 -12 -12 -12 -12 -13 -13 -13 -14 -14 -15 -16 -17 -17 -17 -17 -18 -18 -18 -18 -21 -23 -24 -24 -24 -24 -24 -24 -24 -25 -25 -25 -25 -25 -25 -24 -24 -24 -24 -24 -24
-11 -11 -12 -12 -12 -12 -12 -12 -12 -13 -12 -12 -13 -13 -13 -14 -15 -15 -16 -17 -17 -17 -17 -18 -18 -19 -19 -19 -22 -23 -24 -24 -24 -24 -24 -24 -25 -25 -25 -25 -25 -25 -24 -24 -24 -24 -24 -24 -23
-11 -12 -12 -12 -12 -12 -12 -12 -12 -12 -13 -13 -13 -14 -14 -15 -16 -16 -16 -17 -17 -18 -18 -18 -19 -20 -19 -20 -22 -23 -23 -23 -23 -23 -24 -24 -24 -24 -24 -25 -24 -24 -24 -24 -23 -23 -23 -23 -23
-12 -12 -12 -12 -12 -12 -12 -13 -13 -13 -13 -13 -14 -14 -15 -15 -16 -16 -17 -17 -18 -18 -18 -19 -20 -20 -20 -21 -21 -22 -22 -23 -23 -23 -23 -24 -24 -24 -24 -24 -25 -24 -23 -23 -22 -23 -23 -23 -22
-12 -12 -12 -13 -12 -13 -13 -12 -13 -13 -13 -14 -14 -14 -15 -15 -16 -17 -17 -18 -18 -18 -19 -19 -20 -20 -21 -21 -21 -22 -22 -22 -23 -23 -23 -23 -23 -24 -24 -24 -24 -23 -23 -23 -23 -22 -22 -22 -21
Height
5919 5919 5920 5919 5920 5919 5919 5918 5914 5913 5911 5907 5904 5903 5902 5900 5899 5897 5892 5890 5888 5886 5884 5881 5878 5874 5872 5870 5868 5866 5863 5861 5858 5856 5853 5852 5850 5849 5848 5846 5845 5844 5844 5844 5844 5844 5844 5844 5844
5919 5919 5921 5920 5923 5920 5917 5915 5914 5911 5909 5906 5903 5900 5900 5897 5894 5892 5890 5887 5884 5881 5880 5877 5874 5872 5870 5867 5865 5862 5860 5859 5857 5854 5852 5849 5847 5846 5844 5844 5843 5841 5839 5838 5839 5839 5839 5839 5839
5920 5921 5922 5922 5922 5919 5917 5914 5912 5910 5907 5904 5901 5901 5899 5894 5892 5889 5887 5885 5881 5878 5875 5872 5870 5869 5866 5864 5862 5860 5857 5856 5854 5853 5851 5848 5845 5843 5841 5840 5839 5838 5837 5836 5834 5833 5834 5834 5834
5923 5924 5924 5923 5921 5918 5915 5912 5911 5910 5906 5904 5901 5898 5897 5893 5890 5887 5884 5881 5878 5875 5872 5870 5868 5865 5862 5860 5858 5856 5854 5852 5851 5849 5847 5846 5845 5842 5839 5835 5834 5833 5833 5832 5831 5830 5828 5828 5828
5924 5924 5924 5923 5921 5918 5915 5914 5912 5909 5906 5904 5901 5898 5895 5891 5887 5884 5880 5878 5875 5872 5869 5866 5864 5862 5859 5856 5854 5852 5850 5848 5847 5844 5843 5841 5840 5839 5838 5836 5834 5829 5826 5826 5826 5825 5825 5824 5822
5926 5925 5925 5922 5921 5918 5915 5912 5910 5907 5904 5902 5899 5895 5892 5887 5885 5881 5878 5875 5872 5870 5867 5864 5861 5859 5857 5854 5852 5849 5846 5843 5841 5838 5836 5834 5833 5832 5830 5829 5828 5826 5824 5820 5818 5818 5817 5818 5817
5925 5925 5924 5922 5921 5917 5914 5909 5907 5903 5903 5901 5898 5893 5889 5886 5881 5877 5875 5873 5870 5867 5864 5861 5858 5856 5854 5851 5848 5846 5843 5840 5837 5834 5831 5829 5827 5825 5823 5823 5821 5818 5816 5816 5814 5812 5810 5809 5810
5925 5925 5923 5921 5918 5913 5910 5906 5903 5901 5899 5897 5893 5889 5885 5881 5878 5875 5873 5870 5866 5863 5860 5858 5856 5852 5849 5846 5842 5840 5837 5835 5832 5829 5826 5824 5822 5819 5816 5816 5814 5809 5806 5804 5802 5803 5802 5802 5801
5923 5923 5922 5919 5915 5912 5908 5902 5900 5897 5895 5892 5889 5886 5882 5879 5876 5873 5869 5865 5863 5861 5858 5855 5852 5849 5846 5842 5839 5836 5832 5829 5826 5823 5820 5818 5815 5811 5808 5805 5802 5799 5796 5795 5791 5790 5790 5790 5789
5923 5921 5919 5917 5913 5908 5906 5901 5897 5894 5891 5888 5884 5882 5878 5875 5871 5868 5864 5862 5860 5858 5855 5851 5848 5844 5841 5838 5835 5831 5827 5824 5820 5816 5812 5808 5805 5802 5798 5794 5792 5786 5783 5781 5778 5777 5777 5776 5778
5921 5919 5916 5914 5911 5905 5901 5899 5895 5891 5888 5884 5880 5877 5873 5870 5866 5864 5862 5860 5857 5854 5850 5847 5843 5839 5835 5832 5828 5824 5820 5815 5811 5807 5802 5797 5793 5790 5787 5783 5779 5776 5772 5767 5764 5763 5761 5764 5762
5918 5916 5913 5910 5906 5902 5897 5893 5889 5886 5883 5879 5875 5871 5869 5866 5864 5861 5859 5856 5853 5849 5845 5841 5838 5833 5828 5823 5818 5814 5808 5804 5799 5794 5791 5785 5780 5776 5773 5770 5766 5762 5757 5755 5752 5747 5750 5750 5749
5913 5910 5908 5904 5900 5897 5893 5888 5885 5881 5878 5874 5871 5868 5866 5863 5861 5858 5855 5851 5847 5843 5839 5835 5830 5826 5821 5815 5810 5805 5799 5794 5788 5781 5776 5771 5765 5761 5757 5753 5751 5748 5743 5739 5735 5735 5731 5737 5737
5907 5905 5902 5898 5895 5891 5886 5882 5879 5876 5873 5870 5867 5864 5862 5860 5857 5854 5851 5846 5842 5838 5833 5828 5823 5818 5812 5805 5799 5793 5787 5780 5774 5767 5761 5754 5749 5744 5739 5734 5729 5727 5727 5724 5718 5717 5714 5716 5721
5903 5899 5895 5893 5890 5886 5882 5879 5874 5872 5868 5865 5863 5861 5858 5856 5853 5850 5846 5841 5836 5831 5826 5820 5814 5808 5802 5795 5788 5780 5772 5764 5758 5750 5743 5736 5729 5723 5718 5714 5708 5704 5702 5703 5700 5694 5694 5692 5698
5899 5898 5892 5888 5884 5880 5875 5873 5869 5865 5862 5860 5859 5857 5854 5852 5848 5845 5840 5835 5829 5823 5817 5811 5804 5797 5790 5783 5774 5765 5756 5748 5739 5730 5722 5714 5706 5699 5694 5690 5685 5682 5680 5677 5679 5674 5672 5673 5672
5895 5891 5888 5885 5881 5876 5871 5867 5864 5862 5860 5858 5856 5853 5850 5847 5843 5839 5834 5828 5821 5815 5808 5801 5794 5787 5779 5769 5759 5749 5739 5730 5720 5709 5700 5691 5683 5675 5669 5665 5661 5658 5656 5654 5654 5654 5651 5651 5653
5889 5886 5884 5881 5877 5871 5867 5864 5861 5859 5857 5855 5852 5849 5846 5842 5838 5833 5826 5820 5813 5806 5799 5791 5783 5775 5765 5755 5745 5733 5721 5709 5697 5685 5673 5662 5654 5647 5641 5636 5629 5629 5630 5628 5628 5630 5630 5629 5632
5886 5882 5879 5875 5871 5867 5863 5859 5858 5856 5854 5851 5849 5845 5842 5837 5832 5826 5820 5813 5805 5796 5787 5778 5770 5762 5751 5740 5729 5717 5701 5687 5674 5661 5647 5635 5623 5614 5608 5605 5599 5594 5597 5602 5601 5605 5608 5608 5610
5880 5877 5874 5870 5866 5863 5859 5856 5855 5854 5851 5849 5845 5841 5836 5832 5825 5817 5810 5803 5794 5784 5775 5766 5758 5748 5737 5723 5709 5693 5678 5662 5647 5633 5617 5605 5594 5583 5576 5574 5570 5567 5566 5569 5570 5572 5582 5586 5587
5873 5871 5868 5864 5861 5858 5854 5852 5851 5851 5848 5844 5839 5836 5831 5825 5819 5811 5802 5793 5783 5773 5764 5754 5744 5733 5721 5707 5691 5675 5656 5639 5623 5608 5594 5582 5572 5565 5560 5555 5551 5548 5545 5544 5548 5546 5549 5560 5564
5869 5866 5863 5859 5856 5855 5853 5847 5849 5847 5843 5838 5834 5829 5824 5817 5809 5802 5792 5781 5772 5762 5753 5741 5731 5718 5704 5689 5672 5654 5636 5619 5604 5591 5579 5571 5564 5558 5551 5546 5540 5535 5531 5525 5525 5525 5523 5527 5538
5864 5861 5858 5855 5852 5850 5849 5845 5840 5841 5837 5831 5827 5823 5816 5809 5801 5792 5782 5772 5761 5751 5740 5729 5717 5703 5688 5672 5654 5635 5617 5602 5591 5582 5574 5566 5557 5548 5540 5533 5527 5520 5515 5510 5506 5505 5505 5508 5511
5859 5857 5854 5851 5849 5847 5844 5842 5835 5834 5829 5825 5821 5815 5808 5800 5791 5781 5772 5762 5752 5741 5730 5718 5705 5691 5675 5656 5638 5618 5604 5595 5586 5578 5569 5560 5549 5538 5528 5520 5513 5508 5504 5499 5494 5492 5491 5492 5493
5855 5852 5849 5847 5845 5843 5839 5837 5834 5829 5824 5819 5814 5807 5800 5791 5782 5772 5762 5751 5742 5732 5720 5707 5692 5677 5660 5642 5624 5609 5599 5590 5581 5573 5562 5552 5539 5529 5520 5512 5506 5500 5494 5490 5485 5482 5479 5478 5479
5850 5848 5847 5843 5842 5839 5835 5832 5828 5823 5818 5813 5807 5800 5791 5782 5773 5762 5753 5742 5733 5722 5711 5697 5680 5664 5649 5633 5615 5605 5595 5585 5576 5566 5555 5543 5532 5522 5513 5505 5499 5493 5488 5483 5478 5474 5471 5470 5470
5846 5844 5842 5839 5837 5833 5831 5827 5823 5817 5812 5806 5799 5790 5782 5773 5763 5754 5745 5736 5725 5714 5702 5687 5670 5655 5641 5625 5610 5600 5590 5579 5570 5559 5548 5537 5527 5518 5508 5500 5493 5488 5483 5479 5473 5467 5464 5463 5465
5841 5840 5838 5835 5831 5827 5822 5819 5816 5810 5803 5797 5790 5782 5773 5764 5755 5747 5738 5728 5717 5705 5691 5677 5663 5650 5635 5618 5607 5597 5586 5575 5564 5554 5543 5533 5523 5513 5504 5496 5490 5484 5480 5473 5467 5463 5460 5460 5459
5837 5834 5832 5829 5826 5821 5817 5813 5806 5801 5796 5789 5782 5774 5766 5757 5748 5739 5729 5719 5708 5695 5682 5670 5657 5645 5631 5616 5605 5594 5583 5571 5561 5551 5540 5529 5520 5510 5501 5495 5488 5482 5476 5468 5460 5458 5457 5457 5459
5830 5828 5825 5822 5818 5815 5810 5808 5801 5795 5789 5782 5775 5767 5758 5749 5740 5730 5721 5711 5700 5688 5676 5665 5653 5640 5627 5614 5603 5592 5580 5569 5558 5548 5537 5528 5519 5510 5501 5494 5488 5482 5473 5461 5454 5453 5455 5459 5461
Wind_Speed
22 24 23 22 25 21 18 19 20 19 20 21 24 26 27 26 24 25 25 21 21 22 21 17 16 18 18 17 15 13 13 13 14 14 13 13 14 15 16 17 17 16 15 15 15 14 13 12 11
22 22 21 21 18 18 20 21 21 22 23 24 26 30 29 30 30 28 27 26 29 29 24 21 21 18 18 19 18 17 16 14 16 17 17 17 17 17 18 19 20 20 20 20 20 19 18 18 17
21 21 19 18 18 18 20 21 22 24 26 28 29 29 31 33 33 31 30 30 30 30 30 28 25 24 24 23 21 21 22 20 17 17 20 21 20 20 20 20 21 22 23 24 24 24 23 22 22
17 15 16 17 17 19 21 23 23 25 27 28 30 31 32 32 32 33 33 32 31 28 26 26 27 29 28 25 24 22 23 24 23 23 22 23 25 27 26 24 24 24 24 26 27 27 28 27 26
14 14 16 16 18 19 20 22 25 25 26 27 30 30 32 32 32 31 31 29 28 27 26 28 28 28 27 27 26 25 23 22 25 27 27 27 26 27 29 32 34 31 29 29 30 30 31 31 30
13 14 17 21 20 21 22 24 24 25 28 29 31 32 33 32 32 31 28 27 25 23 26 27 27 28 27 26 25 26 27 28 28 27 27 30 30 31 29 31 34 37 40 37 35 35 35 35 34
13 15 17 20 21 22 24 26 26 29 29 29 29 32 32 32 32 30 26 22 21 24 24 24 26 27 26 25 26 26 26 27 30 33 34 34 35 37 34 33 34 40 41 43 42 41 41 40 39
14 17 20 22 24 27 28 30 31 32 33 32 31 32 33 32 28 24 20 22 22 21 22 22 22 23 24 25 27 26 27 26 26 29 32 33 37 39 41 41 41 43 44 45 45 46 45 44 44
18 21 22 24 27 29 30 34 34 35 35 34 33 31 30 25 21 21 22 19 17 20 20 21 23 23 25 26 28 31 33 33 33 33 34 35 37 39 40 44 45 49 48 49 49 48 51 51 50
17 20 23 24 27 31 31 34 37 37 36 36 34 32 25 21 19 18 16 17 18 17 19 21 25 27 29 31 33 35 37 39 40 42 45 46 46 45 46 48 49 53 54 56 61 57 58 56 54
18 22 23 25 28 32 34 35 36 37 35 34 32 25 22 19 17 16 16 17 17 19 21 23 25 27 28 30 31 34 36 39 41 43 48 50 53 54 54 57 58 56 59 62 57 53 62 57 61
20 22 25 26 29 32 35 38 39 37 34 29 24 22 20 16 13 14 14 16 19 21 24 27 30 32 33 34 37 39 41 43 45 46 48 49 52 54 56 59 62 64 67 66 68 65 52 47 60
23 24 25 28 30 32 34 36 35 32 28 25 22 21 15 13 12 14 16 20 23 26 28 31 34 36 37 37 39 42 46 48 50 53 54 55 56 57 59 59 60 65 68 72 69 69 64 56 47
25 26 27 29 30 32 34 35 33 29 25 23 21 16 13 14 15 18 21 25 28 30 33 36 38 38 42 43 46 49 53 57 58 59 60 61 66 68 68 67 68 67 66 70 79 72 72 62 57
25 27 28 28 30 32 34 32 30 27 25 23 16 14 15 17 20 22 25 29 33 36 40 43 45 46 50 53 54 55 58 60 62 65 65 68 69 70 72 72 74 75 74 67 69 73 72 73 65
24 23 27 29 32 34 35 31 30 27 25 21 15 17 20 22 25 28 32 35 40 45 50 53 53 54 57 58 59 62 63 65 67 69 72 72 74 77 78 78 80 78 78 77 74 76 79 77 76
23 25 26 29 31 33 33 31 27 23 20 17 19 23 25 28 31 34 38 43 48 53 56 57 57 60 61 63 65 67 69 71 72 75 76 76 75 76 77 77 78 79 78 78 78 77 79 81 78
25 26 28 30 30 29 29 27 24 22 18 20 24 26 28 32 35 39 44 49 54 57 59 59 62 62 64 67 70 73 76 81 82 83 82 82 81 80 80 79 79 77 76 77 75 76 75 76 75
26 28 30 29 28 27 27 26 22 19 21 24 25 28 31 35 39 45 49 54 57 58 60 61 61 64 69 72 75 80 83 85 86 85 85 85 83 82 83 81 82 85 81 76 77 74 74 76 74
28 28 28 28 26 26 25 23 20 19 23 26 27 30 34 38 45 51 53 56 58 60 61 62 64 68 74 79 83 87 89 89 87 87 85 83 85 86 78 73 71 69 73 83 86 83 77 75 76
30 29 29 27 26 25 26 23 21 21 25 26 31 34 39 45 49 52 55 57 60 61 62 65 70 75 79 83 85 88 89 90 81 79 79 71 60 54 51 47 49 51 53 53 67 79 86 82 79
29 28 27 27 26 25 22 32 22 24 26 31 35 41 44 48 51 54 56 59 60 62 65 71 73 79 83 85 88 90 90 76 68 59 46 43 39 40 42 41 44 48 52 58 55 53 61 72 79
26 25 25 25 26 27 23 27 34 29 31 36 40 43 46 48 51 54 58 59 61 64 67 70 76 81 84 86 89 90 73 57 47 38 40 42 46 49 49 49 49 49 41 40 37 38 46 53 65
23 24 23 24 25 26 26 28 35 32 36 39 41 43 47 50 53 56 58 59 61 63 66 72 77 81 83 86 89 76 55 46 41 40 46 49 49 50 48 46 41 38 36 34 31 33 36 41 51
21 21 23 25 24 25 26 29 29 33 36 38 42 46 49 51 54 56 57 61 63 65 68 73 77 80 84 86 84 59 49 45 43 48 50 53 49 43 41 39 35 33 31 29 29 25 31 34 36
19 19 20 23 24 27 26 29 30 32 36 39 43 46 49 52 54 56 60 61 62 65 69 73 77 80 83 80 67 50 48 47 50 50 55 49 45 43 38 34 33 26 23 29 22 26 30 23 23
17 18 20 23 24 27 29 29 31 34 38 42 45 48 51 54 56 58 58 60 63 66 70 73 77 76 74 69 54 49 48 47 49 54 48 46 43 38 35 33 26 24 25 28 26 21 19 18 20
18 18 20 22 27 28 31 32 34 39 42 43 47 49 52 55 56 56 59 62 63 65 71 72 72 66 64 57 51 48 48 49 50 47 46 44 42 38 33 27 24 23 27 29 26 17 12 19 17
17 19 20 23 24 28 33 35 38 42 43 45 47 49 52 55 55 57 59 61 61 65 68 70 64 59 58 54 52 49 47 46 47 46 46 43 39 35 29 25 23 26 27 25 27 18 14 18 14
18 19 22 25 30 29 32 36 38 41 43 44 45 49 52 53 55 55 58 59 61 66 66 67 59 56 56 53 51 48 47 45 45 46 45 42 37 32 30 28 26 32 35 34 18 8 3 7 9
Wind_Direction
66 59 52 46 37 33 29 27 23 15 7 -0 354 2 1 2 1 359 357 355 354 352 347 336 326 320 321 318 311 302 293 279 270 263 254 250 248 246 240 236 230 231 235 240 241 244 247 243 236
54 52 44 43 38 19 14 15 8 5 -0 354 353 355 356 351 355 355 351 348 348 344 340 331 324 316 311 309 302 295 290 284 278 267 261 255 251 250 247 245 243 239 234 236 238 238 237 241 237
53 41 36 32 27 14 359 2 -0 356 353 351 345 350 348 347 349 347 345 347 344 339 335 333 332 332 326 317 301 295 295 290 283 280 273 263 258 254 253 251 249 247 246 241 238 238 237 236 237
52 39 27 19 13 4 354 351 350 352 345 345 342 342 344 341 341 340 341 339 338 335 332 332 333 330 325 319 313 305 298 296 296 290 281 278 271 265 260 253 251 252 249 248 245 242 240 239 238
46 27 13 5 5 352 343 340 344 340 334 340 335 336 336 336 336 333 335 336 330 332 333 330 331 333 334 331 327 323 315 305 297 291 288 288 289 288 282 273 267 258 250 249 248 247 246 245 241
37 16 355 353 352 340 335 331 332 325 328 335 333 334 331 328 327 329 328 329 329 328 325 326 335 343 346 343 339 333 325 316 306 294 286 282 281 282 284 278 273 269 264 254 247 245 244 246 245
16 3 348 339 336 328 326 321 323 322 324 325 327 323 320 322 322 322 324 323 322 320 324 333 333 338 345 344 340 336 330 324 318 316 310 301 287 279 278 279 276 274 268 262 257 250 245 243 243
2 347 341 333 328 324 321 320 319 318 319 321 319 318 319 318 319 321 316 315 321 327 331 335 335 336 340 341 336 331 324 316 312 306 304 304 303 298 290 279 274 288 270 259 257 253 251 247 243
347 334 329 325 318 318 315 315 314 313 314 314 315 316 313 313 318 312 309 313 323 328 333 336 336 338 334 331 328 326 322 317 311 306 302 298 297 292 291 292 286 282 279 265 256 254 254 248 244
326 317 316 315 312 310 308 307 308 310 311 314 313 313 312 311 305 302 307 318 325 331 330 332 331 327 327 325 322 320 318 314 313 310 306 301 299 295 289 285 280 280 276 274 276 269 251 250 248
312 308 308 307 307 305 305 303 303 306 309 308 310 310 308 300 298 304 314 319 320 318 316 315 315 313 312 310 309 308 308 306 304 300 301 301 299 295 291 290 288 283 279 280 278 272 276 264 246
302 304 305 306 303 302 303 304 307 309 311 312 309 302 295 288 290 299 308 309 306 304 305 307 307 306 307 307 305 305 302 300 296 296 294 291 291 289 288 287 284 283 282 278 278 281 275 271 265
303 307 306 306 306 307 308 308 309 312 314 310 303 296 279 278 286 292 294 298 301 302 303 303 303 302 301 300 299 299 298 297 297 296 294 290 283 280 280 276 274 277 277 277 276 275 277 268 262
303 305 308 310 314 312 310 309 312 313 310 305 299 283 275 278 285 290 291 297 302 303 304 301 298 296 297 297 298 299 303 303 301 299 297 297 297 293 290 284 278 271 267 268 271 271 272 277 266
299 306 312 314 313 310 310 312 312 311 306 305 294 271 274 276 281 289 293 296 299 301 301 299 296 297 300 301 303 303 302 300 300 300 298 294 288 284 280 278 276 276 278 273 267 270 274 279 275
299 305 310 313 313 314 313 316 312 312 308 304 289 275 276 282 290 296 297 298 297 299 300 299 301 304 305 305 304 304 302 302 300 298 295 291 286 281 278 276 276 275 273 271 268 269 271 272 277
306 312 312 312 313 312 312 311 309 305 298 289 285 282 284 291 296 297 298 298 300 302 302 302 305 305 305 306 306 305 305 304 303 301 298 294 288 285 283 280 277 275 272 271 269 266 267 270 272
310 310 310 312 312 311 310 308 304 303 294 286 288 291 291 297 299 298 300 302 303 305 305 304 304 306 309 309 308 310 310 310 309 306 302 298 295 292 289 286 282 275 269 266 264 263 263 265 266
305 307 311 313 315 312 309 305 300 294 287 289 292 297 298 301 302 304 305 307 308 306 304 306 308 311 312 311 312 314 313 311 310 307 303 300 295 289 283 278 274 273 272 265 263 261 258 259 260
305 308 311 313 314 310 306 297 290 286 289 294 298 302 304 307 309 311 310 308 307 308 310 310 311 314 315 316 319 317 315 312 310 307 302 297 291 290 292 289 286 285 281 270 262 259 255 254 255
305 308 312 314 313 311 306 296 291 294 298 302 302 307 309 311 311 311 311 311 311 311 311 312 316 318 320 322 320 317 315 315 311 302 300 302 302 302 301 291 284 283 284 279 272 270 263 250 251
303 308 312 312 313 311 307 300 296 302 306 305 307 310 314 314 314 315 314 312 313 314 315 319 320 323 324 322 321 319 319 317 311 314 321 324 320 313 308 300 293 290 289 289 285 273 265 263 255
304 309 311 312 312 312 309 303 302 310 308 308 311 315 316 316 316 314 313 315 316 316 320 322 325 325 324 324 324 324 324 323 329 334 330 324 317 313 307 302 299 297 296 293 290 274 265 257 255
305 308 312 312 313 312 311 308 308 314 310 312 316 317 318 318 316 314 315 316 317 321 322 326 326 324 326 328 327 331 330 333 331 324 322 320 317 312 311 310 308 306 302 299 291 282 268 265 252
304 310 312 312 314 309 313 310 313 311 313 315 319 320 319 317 314 315 318 317 320 323 326 326 325 327 331 333 332 334 332 330 325 325 324 323 323 322 319 315 314 313 307 310 304 286 272 260 255
302 307 303 304 309 309 313 315 316 312 314 318 320 319 319 317 318 321 320 320 324 327 327 328 329 332 335 335 338 335 334 330 327 327 328 328 327 326 325 324 324 316 315 320 311 289 284 252 260
300 301 301 303 309 312 311 312 312 317 315 320 322 323 320 320 322 322 320 324 327 327 328 331 333 335 337 339 343 337 335 333 330 331 332 333 333 331 329 328 330 325 322 322 315 299 280 258 277
301 302 303 306 311 314 316 315 318 316 320 324 326 323 322 321 322 321 323 326 326 328 332 334 335 336 341 347 347 343 340 336 335 336 336 335 336 336 333 335 338 328 326 319 314 310 289 282 253
301 303 307 310 313 311 311 313 320 319 322 326 324 322 322 321 321 322 324 325 327 331 333 334 336 337 346 351 347 343 342 341 341 340 340 341 343 342 342 339 342 335 333 315 317 301 292 286 218
307 308 311 311 312 309 310 315 317 319 322 323 321 323 321 321 321 323 325 326 329 333 333 335 335 336 344 349 347 344 343 342 342 341 344 347 350 349 356 354 352 349 358 358 328 302 253 257 205